METAR Formatted Surface Weather Observation
Issued by NWS

Home | Current Version | Previous Version | Text Only | Print | Product List | Glossary On
Versions: 1 2 3 4 5 6 7 8 9 10 11 12 13 14 15 16 17 18 19 20 21 22 23 24 25 26 27 28 29 30 31 32 33 34 35 36 37 38 39 40 41 42 43 44 45 46 47 48 49 50
292
SAUS44 KLIX 132056
MTRNBG
METAR KNBG 132055Z 05007KT 10SM FEW250 16/02 A3035 RMK AO2 SLP277
T01610017 56026 $



USA.gov is the U.S. government's official web portal to all federal, state and local government web resources and services.